User: anonymous   Login
Location: Irma
(52.9170°N, 111.2330°W)
Time: 13:24:41
(UTC-07:00)
Language:

deb Chang Zheng 4 - Orbit

View from above orbital plane
View from above orbital plane
View from above satellite
View from above satellite

Ground track
Ground track

The orbit data is extracted from the following two-line orbital elements,

1 20847U 90081K   14325.12834785  .00020824  00000-0  35221-2 0  2424
2 20847 098.5766 136.2634 0021037 167.5620 327.3576 14.69219907267218
Epoch (UTC): 21 November 2014 03:04:49
Eccentricity: 0.0021037
inclination: 98.5766°
perigee height: 649 km
apogee height: 678 km
right ascension of ascending node: 136.2634°
argument of perigee: 167.5620°
revolutions per day: 14.69219907
mean anomaly at epoch: 327.3576°
orbit number at epoch: 26721

The dashed part of the orbit path shows where the satellite is in the earth's shadow,  

DLR